Location: College Park
(38.9810°N, 76.9370°W)
Time: 10:18:33
(UTC-04:00)

OTV 5 (USA 277) - Visible Passes

Search period start: 21 June 2018 00:00
Search period end: 01 July 2018 00:00
Orbit: 313 x 320 km, 54.5° (Epoch: 19 June)

Date Brightness Start Highest point End Pass type
(mag) Time Alt. Az. Time Alt. Az. Time Alt. Az.
21 Jun ? 02:39:52 10° NNW 02:40:26 14° NNW 02:40:26 14° NNW visible
25 Jun ? 00:29:50 10° N 00:30:05 11° N 00:30:05 11° N visible
27 Jun ? 23:38:18 10° NNW 23:39:24 15° N 23:39:24 15° N visible
28 Jun ? 23:52:13 10° NNW 23:52:54 16° NNW 23:52:54 16° NNW visible
29 Jun ? 22:33:26 10° N 22:34:39 12° NNE 22:35:37 11° NE visible
30 Jun ? 22:46:59 10° NNW 22:49:12 25° NNE 22:49:12 25° NNE visible
